This demonstration page uses our WeatherBlox Daily Observations layout. Learn more.

Left ArrowRight Arrow

Hourly Observations for February 14, 2020

Temp ( °F °C ) Dew Point ( °F °C ) Humidity (%) Winds ( mph kmh ) Pressure ( in mb ) Visibility ( mi km ) Precip ( " mm )
12:59 am 00:59 Cloudy 48 8.9 35 1.7 61 61 N 16 26 30.05 1018 10 16 0.00 0.00
1:59 am 01:59 Mostly Cloudy 48 8.9 35 1.7 61 61 N 14 22 30.08 1019 10 16 0.00 0.00
2:59 am 02:59 Mostly Cloudy 47 8.3 32 0 56 56 N 14 22 30.11 1020 10 16 0.00 0.00
3:59 am 03:59 Mostly Cloudy 46 7.8 32 0 58 58 N 9 15 30.13 1020 10 16 0.00 0.00
4:59 am 04:59 Partly Cloudy 46 7.8 30 -1.1 54 54 N 13 20 30.17 1022 10 16 0.00 0.00
5:59 am 05:59 Mostly Cloudy 45 7.2 29 -1.7 54 54 N 12 19 30.19 1022 10 16 0.00 0.00
6:59 am 06:59 Mostly Cloudy 45 7.2 29 -1.7 54 54 N 8 13 30.21 1023 10 16 0.00 0.00
7:59 am 07:59 Mostly Cloudy 45 7.2 30 -1.1 56 56 N 7 11 30.24 1024 10 16 0.00 0.00
8:59 am 08:59 Mostly Cloudy 46 7.8 29 -1.7 51 51 NNW 7 11 30.25 1024 10 16 0.00 0.00
9:59 am 09:59 Mostly Cloudy 48 8.9 31 -0.6 52 52 NNW 12 19 30.26 1025 10 16 0.00 0.00
10:59 am 10:59 Mostly Cloudy 48 8.9 30 -1.1 50 50 NNW 13 20 30.27 1025 10 16 0.00 0.00
11:59 am 11:59 Mostly Cloudy 49 9.4 32 0 52 52 N 15 24 30.29 1026 10 16 0.00 0.00
12:59 pm 12:59 Mostly Cloudy 45 7.2 31 -0.6 58 58 NNE 14 22 30.29 1026 10 16 0.00 0.00
1:59 pm 13:59 Sunny 46 7.8 30 -1.1 54 54 NNE 18 30 30.31 1026 10 16 0.00 0.00
2:59 pm 14:59 Mostly Cloudy 43 6.1 29 -1.7 58 58 NNE 16 26 30.32 1027 10 16 0.00 0.00
3:59 pm 15:59 Mostly Cloudy 43 6.1 28 -2.2 56 56 NNE 16 26 30.34 1027 10 16 0.00 0.00
4:59 pm 16:59 Mostly Cloudy 42 5.6 27 -2.8 55 55 NNE 14 22 30.35 1028 10 16 0.00 0.00
5:59 pm 17:59 Mostly Cloudy 41 5 26 -3.3 55 55 NNE 17 28 30.37 1029 10 16 0.00 0.00
6:59 pm 18:59 Mostly Cloudy 40 4.4 25 -3.9 55 55 NNE 18 30 30.41 1030 10 16 0.00 0.00
7:59 pm 19:59 Mostly Cloudy 39 3.9 22 -5.6 50 50 NNE 18 30 30.45 1031 10 16 0.00 0.00
8:59 pm 20:59 Mostly Cloudy 38 3.3 21 -6.1 51 51 NNE 18 30 30.49 1033 10 16 0.00 0.00
9:59 pm 21:59 Mostly Cloudy 37 2.8 20 -6.7 50 50 N 17 28 30.53 1034 10 16 0.00 0.00
10:59 pm 22:59 Mostly Cloudy 36 2.2 19 -7.2 50 50 N 17 28 30.55 1034 10 16 0.00 0.00
11:59 pm 23:59 Mostly Cloudy 35 1.7 19 -7.2 52 52 NE 15 24 30.56 1035 10 16 0.00 0.00

Powered by AerisWeather